Showing default

EXPLORER 7, 22

Orbit data source: Space-Track

EXPLORER 7, 22 is a payload satellite owned by GSFC (US) in LEO that was launched on Tue, 13 Oct 1959 UTC via a JUNO II launch vehicle from the Air Force Eastern Test Range (AFETR). Payload-class satellites include a variety of spacecraft equipped with specific instruments for various scientific and technological missions. These include communications satellites like Starlink; space stations such as the ISS; scientific satellites like the Hubble; Earth observation satellites from companies like Planet Labs, Umbra, and HawkEye 360; GPS; miniature CubeSats for education and research; and military/defense satellites.

Loading next visibility...
Identifier
22, 1959-009A
Orbit
LEO
Country
Flag of USUS
Related business
Manufacturer
ABMA
Mission
Spacecraft
Bus & Motor
S-1, Unknown motor
Mass
41 kg wet, 41 kg dry
Launch date (UTC)
1959-10-13 (66 years ago)
Launch vehicle
JUNO II
Launch site
Air Force Eastern Test Range (AFETR)
Object type
Payload
Rocket body
Debris
Shape & HBR
Unknown
Radar Cross Section
Medium (>0.1 m² and <1 m²)

Expand to show TLE details & history
Last TLE update: 9 hours ago

TLE from 9 hours ago
0 EXPLORER 7
1 00022U 59009A   25309.91107948  .00011470  00000-0  45071-3 0  9998
2 00022  50.2720 119.3821 0086944 306.1744  53.1194 15.22649500766256
Epoch: 2025-11-05T21:51Z
TLE epoch observation values (Epoch: 2025-11-05T21:51:57.267Z)
Latitude
-0.00005°
Longitude
106.01648°
Altitude
462.895 km
Speed
7.656 km/s
True Right ascension
07h 57m 31s
True Declination
0° 00' 00"
Sunlit
Object was in daylight at epoch
Visualization orbit readout
Latitude
Unknown
Longitude
Unknown
Altitude
Unknown
Speed
Unknown
Apparent Right ascension
Unknown
Apparent Declination
Unknown
Sunlit
N/A
Visualization observer readout
Local Sidereal Time
03:12:50
Azimuth
Unknown
Elevation
Unknown
Doppler factor
Unknown
Orbital elements
Apogee altitude
558.368 km
Perigee altitude
438.79 km
Semi-major axis
6,876.716 km
Eccentricity
0.00869
Inclination
50.272°
RAAN
119.3821°
Arg. of periapsis
306.1744°
True anomaly
53.92154°
Mean anomaly
53.1194°
Eccentric anomaly
53.51995°
Mean motion
3.80602 °/min
Orbital period
94.59 mins
BSTAR
0.00045071
Loading maneuver chart data...
Computing Atmospheric mass density...
Loading historical data...
Loading historical data...
Loading historical data...
Loading historical data...
Loading historical data...
Loading historical data...
Loading historical data...
Other satellites on launch #9 in the year 1959 (1959-10-13 UTC)

Documentation

Showing up to 5 results
|